Retour au catalogue

SATCOM 3R

ActifCommunicationsGEO
NORAD 12967·PAYLOAD·🇺🇸 United States

Lancé Nov 20, 1981 depuis Cape Canaveral Space Force Station

Loading…

TLE

FraisSource: Space-Track

Époque: Sep 14, 2026, 13:13 UTC

1 12967U 81114A   26257.55126147 -.00000125  00000-0  00000-0 0  9992
2 12967  11.9891 331.2867 0005019 298.9997  85.8590  1.00140558128969

Suivez SATCOM 3R en temps réel avec AllMySat

Download on the App Store